Aérodrome :
LOGIN :

S'inscrire | Disclaimer

   EN    FR    IT 

 










Légende :    VFR   VFR Marginal   IFR   IFR Intensif   IFR Très Intensif
Visi : 
Plafond : 
>= 8 km
>= 3000ft
5 à 8 km
1000 à 3000 ft
1500m à 5 km
500 à 1000 ft
800 à 1500m
200 à 500 ft
< 800m
< 200 ft
Symboles :   Orages  Brouillard  Fortes neiges  Fortes précipitations  Vent > 20 kt
SIGMETs :   Divers  Orages  Givrage  Turbulence  Onde Orograph.  Cendres Volcan.







- Altitude de l'aérodrome : 538 ft
- Code IATA : TNF
- Voir les cartes d'approche


LFPN - Toussus Le Noble

DERNIER METAR :
  • 181500Z AUTO 13010KT 090V150 CAVOK 28/14 Q1010 NOSIG

METARs EXPIRÉS :
  • 181430Z AUTO 12011KT CAVOK 28/14 Q1011 NOSIG
  • 181400Z AUTO 13010KT CAVOK 28/15 Q1011 NOSIG
  • 181330Z AUTO 13010KT CAVOK 28/15 Q1011 NOSIG
  • 181300Z AUTO 13007KT CAVOK 26/16 Q1011 NOSIG
  • 181230Z AUTO 13007KT 100V160 CAVOK 26/15 Q1012 NOSIG

TAF TAF LFPN
Valide du 18 à 15h jusqu'au 19 à 00h UTC


181400Z 1815/1824 12008KT CAVOK
PROB40
TEMPO 1819/1824 VRB10G25KT 4000 -SHRA BKN050CB
PROB30
TEMPO 1822/1824 VRB15G30KT 1500 TSRAGR BKN050CB
ATIS : +33 1 39 56 54 70
Pas de NOTAMs connus pour ce terrain.



MET'MAP, la Météo Aéronautique d'un coup d'oeil ! - Copyright ORBIFLY Décembre 2007 - Disclaimer

ORBIFLY MET'MAP TEAM :

Programmation & Développement : Alexandra Zaïnal
Conception & Développement : Baudouin d'Aumeries
Co-Programmation & Développement : Marc-Olivier Méhu
Soutien technique & logistique : Manuel Goepfert

Contact : metmap@orbifly.com




SOURCES & CREDITS :

   NOAA